• In Belarus
  • List of Countries
  • For 7 days
  • Water Temperature
  • Weather Map
  • Weather Widgets
  • user-avatar
    Login

    Hourly Weather Korovino

    Today, 13 December, Friday

    Time Temperature Precipitation Wind Pressure Humidity
    00:00 -4°C° 0 mm 2 mps 754 mmHg 80%
    01:00 -5°C° 0 mm 2 mps 754 mmHg 78%
    02:00 -6°C° 0 mm 3 mps 754 mmHg 77%
    03:00 -7°C° 0 mm 3 mps 754 mmHg 69%
    04:00 -7°C° 0 mm 3 mps 754 mmHg 72%
    05:00 -7°C° 0 mm 3 mps 754 mmHg 74%
    06:00 -7°C° 0 mm 3 mps 753 mmHg 77%
    07:00 -7°C° 0 mm 3 mps 753 mmHg 78%
    08:00 -7°C° 0 mm 3 mps 753 mmHg 80%
    09:00 -8°C° 0 mm 4 mps 753 mmHg 81%
    10:00 -8°C° 0 mm 4 mps 753 mmHg 77%
    11:00 -8°C° 0 mm 4 mps 753 mmHg 73%
    12:00 -7°C° 0 mm 4 mps 753 mmHg 69%
    13:00 -7°C° 0 mm 4 mps 753 mmHg 69%
    14:00 -7°C° 0 mm 4 mps 753 mmHg 68%
    15:00 -7°C° 0 mm 4 mps 753 mmHg 68%
    16:00 -8°C° 0 mm 4 mps 753 mmHg 71%
    17:00 -8°C° 0 mm 4 mps 752 mmHg 74%
    18:00 -8°C° 0 mm 4 mps 752 mmHg 77%
    19:00 -8°C° 0 mm 4 mps 752 mmHg 76%
    20:00 -8°C° 0 mm 4 mps 752 mmHg 74%
    21:00 -8°C° 0 mm 4 mps 753 mmHg 73%
    22:00 -9°C° 0 mm 4 mps 753 mmHg 72%
    23:00 -9°C° 0 mm 4 mps 753 mmHg 71%

    Tomorrow, 14 December, Saturday

    Time Temperature Precipitation Wind Pressure Humidity
    00:00 -9°C° 0 mm 4 mps 752 mmHg 70%
    01:00 -9°C° 0 mm 4 mps 753 mmHg 71%
    02:00 -9°C° 0 mm 4 mps 753 mmHg 72%
    03:00 -9°C° 0 mm 4 mps 753 mmHg 73%
    04:00 -9°C° 0 mm 4 mps 753 mmHg 74%
    05:00 -10°C° 0 mm 4 mps 753 mmHg 75%
    06:00 -10°C° 0 mm 4 mps 752 mmHg 75%
    07:00 -10°C° 0 mm 4 mps 753 mmHg 76%
    08:00 -10°C° 0 mm 4 mps 753 mmHg 76%
    09:00 -10°C° 0 mm 4 mps 753 mmHg 76%
    10:00 -9°C° 0 mm 4 mps 753 mmHg 75%
    11:00 -10°C° 0 mm 5 mps 753 mmHg 75%
    12:00 -8°C° 0 mm 5 mps 752 mmHg 74%
    13:00 -8°C° 0 mm 5 mps 752 mmHg 76%
    14:00 -7°C° 0 mm 5 mps 752 mmHg 77%
    15:00 -7°C° 0 mm 5 mps 752 mmHg 78%
    16:00 -7°C° 0 mm 5 mps 752 mmHg 81%
    17:00 -6°C° 0 mm 5 mps 752 mmHg 84%
    18:00 -6°C° 0 mm 6 mps 752 mmHg 87%
    19:00 -6°C° 0 mm 6 mps 752 mmHg 88%
    20:00 -6°C° 0 mm 6 mps 752 mmHg 88%
    21:00 -6°C° 0 mm 6 mps 752 mmHg 88%
    22:00 -6°C° 0.1 mm 6 mps 752 mmHg 89%
    23:00 -6°C° 0.1 mm 6 mps 752 mmHg 89%

    Day after tomorrow, 15 December, Sunday

    Time Temperature Precipitation Wind Pressure Humidity
    00:00 -5°C° 0.1 mm 6 mps 752 mmHg 90%
    01:00 -5°C° 0.1 mm 5 mps 752 mmHg 90%
    02:00 -5°C° 0.1 mm 5 mps 752 mmHg 91%
    03:00 -5°C° 0.1 mm 5 mps 752 mmHg 91%
    04:00 -5°C° 0.1 mm 5 mps 751 mmHg 90%
    05:00 -5°C° 0.1 mm 5 mps 751 mmHg 90%
    06:00 -5°C° 0.1 mm 5 mps 751 mmHg 90%
    07:00 -4°C° 0.4 mm 5 mps 751 mmHg 90%
    08:00 -4°C° 0.4 mm 6 mps 751 mmHg 90%
    09:00 -4°C° 0.4 mm 6 mps 751 mmHg 89%
    10:00 -4°C° 0.4 mm 6 mps 751 mmHg 90%
    11:00 -4°C° 0.4 mm 6 mps 751 mmHg 90%
    12:00 -4°C° 0.4 mm 5 mps 750 mmHg 90%
    13:00 -2°C° 0.1 mm 5 mps 750 mmHg 91%
    14:00 -2°C° 0.1 mm 5 mps 750 mmHg 91%
    15:00 -2°C° 0.1 mm 5 mps 750 mmHg 92%
    16:00 -2°C° 0.1 mm 5 mps 750 mmHg 92%
    17:00 -2°C° 0.1 mm 5 mps 750 mmHg 92%
    18:00 -2°C° 0.1 mm 5 mps 750 mmHg 93%
    19:00 -2°C° 0.2 mm 5 mps 750 mmHg 93%
    20:00 -2°C° 0.2 mm 5 mps 750 mmHg 94%
    21:00 -2°C° 0.2 mm 5 mps 750 mmHg 94%
    22:00 -1°C° 0 mm 5 mps 750 mmHg 94%
    23:00 -1°C° 0 mm 5 mps 750 mmHg 95%

    16 December, Monday

    Time Temperature Precipitation Wind Pressure Humidity
    00:00 -1°C° 0 mm 5 mps 750 mmHg 95%
    01:00 -1°C° 0.1 mm 5 mps 750 mmHg 96%
    02:00 -1°C° 0.1 mm 4 mps 751 mmHg 96%
    03:00 -1°C° 0.1 mm 4 mps 751 mmHg 96%
    04:00 -1°C° 0 mm 4 mps 751 mmHg 97%
    05:00 -1°C° 0 mm 4 mps 751 mmHg 97%
    06:00 0°C° 0 mm 3 mps 751 mmHg 97%
    07:00 0°C° 0 mm 4 mps 751 mmHg 97%
    08:00 0°C° 0 mm 4 mps 751 mmHg 97%
    09:00 0°C° 0 mm 4 mps 751 mmHg 97%
    10:00 0°C° 0 mm 4 mps 751 mmHg 96%
    11:00 +1°C° 0 mm 4 mps 751 mmHg 95%
    12:00 +1°C° 0 mm 5 mps 751 mmHg 93%
    13:00 +1°C° 0.2 mm 5 mps 750 mmHg 94%
    14:00 +1°C° 0.2 mm 5 mps 750 mmHg 94%
    15:00 +1°C° 0.2 mm 5 mps 750 mmHg 94%
    16:00 +1°C° 0 mm 5 mps 750 mmHg 94%
    17:00 0°C° 0 mm 5 mps 750 mmHg 93%
    18:00 0°C° 0 mm 5 mps 750 mmHg 92%
    19:00 0°C° 0 mm 4 mps 750 mmHg 93%
    20:00 0°C° 0 mm 4 mps 750 mmHg 93%
    21:00 +1°C° 0 mm 3 mps 750 mmHg 94%
    22:00 -1°C° 0 mm 4 mps 750 mmHg 94%
    23:00 -1°C° 0 mm 4 mps 751 mmHg 94%

    17 December, Tuesday

    Time Temperature Precipitation Wind Pressure Humidity
    00:00 -1°C° 0 mm 4 mps 751 mmHg 95%
    01:00 -1°C° 0 mm 4 mps 751 mmHg 95%
    02:00 -1°C° 0 mm 3 mps 751 mmHg 95%
    03:00 -1°C° 0 mm 3 mps 751 mmHg 96%
    04:00 -1°C° 0 mm 3 mps 752 mmHg 95%
    05:00 -1°C° 0 mm 3 mps 752 mmHg 95%
    06:00 -1°C° 0 mm 3 mps 752 mmHg 94%
    07:00 -1°C° 0 mm 3 mps 752 mmHg 94%
    08:00 -1°C° 0 mm 3 mps 752 mmHg 94%
    09:00 -1°C° 0 mm 3 mps 752 mmHg 94%
    10:00 -1°C° 0 mm 3 mps 752 mmHg 91%
    11:00 0°C° 0 mm 3 mps 752 mmHg 88%
    12:00 0°C° 0 mm 3 mps 752 mmHg 85%
    13:00 0°C° 0 mm 3 mps 752 mmHg 85%
    14:00 0°C° 0 mm 3 mps 752 mmHg 85%
    15:00 0°C° 0 mm 3 mps 751 mmHg 85%
    16:00 0°C° 0.2 mm 3 mps 751 mmHg 88%
    17:00 0°C° 0.2 mm 3 mps 751 mmHg 91%
    18:00 0°C° 0.2 mm 3 mps 751 mmHg 94%
    19:00 +1°C° 0.4 mm 3 mps 751 mmHg 94%
    20:00 +1°C° 0.4 mm 3 mps 751 mmHg 95%
    21:00 0°C° 0.4 mm 4 mps 751 mmHg 95%
    22:00 +1°C° 0.1 mm 3 mps 751 mmHg 95%
    23:00 +1°C° 0.1 mm 3 mps 751 mmHg 94%

    18 December, Wednesday

    Time Temperature Precipitation Wind Pressure Humidity
    00:00 +1°C° 0.1 mm 3 mps 751 mmHg 94%
    01:00 +1°C° 0 mm 3 mps 750 mmHg 95%
    02:00 +1°C° 0 mm 3 mps 750 mmHg 95%
    03:00 -1°C° 0 mm 4 mps 750 mmHg 96%
    04:00 -1°C° 0 mm 4 mps 750 mmHg 96%
    05:00 -1°C° 0 mm 4 mps 750 mmHg 96%
    06:00 -1°C° 0 mm 4 mps 749 mmHg 97%
    07:00 -1°C° 0 mm 4 mps 749 mmHg 97%
    08:00 -1°C° 0 mm 4 mps 749 mmHg 97%
    09:00 -1°C° 0 mm 4 mps 749 mmHg 97%
    10:00 0°C° 0 mm 4 mps 749 mmHg 97%
    11:00 0°C° 0 mm 4 mps 749 mmHg 96%
    12:00 0°C° 0 mm 4 mps 749 mmHg 96%
    13:00 +1°C° 0 mm 3 mps 749 mmHg 96%
    14:00 +1°C° 0 mm 3 mps 748 mmHg 96%
    15:00 +1°C° 0 mm 3 mps 748 mmHg 96%
    16:00 +1°C° 0 mm 3 mps 748 mmHg 96%
    17:00 +1°C° 0 mm 3 mps 748 mmHg 96%
    18:00 +1°C° 0 mm 3 mps 748 mmHg 96%
    19:00 +1°C° 0 mm 3 mps 747 mmHg 96%
    20:00 +1°C° 0 mm 3 mps 747 mmHg 96%
    21:00 +1°C° 0 mm 3 mps 747 mmHg 97%
    22:00 +1°C° 0 mm 3 mps 746 mmHg 97%
    23:00 +1°C° 0 mm 3 mps 746 mmHg 97%
    Show more